Location: Luz Observatory
(34.5000°N, 117.2833°W)
Time: 15:27:16
(UTC-07:00)

Daily predictions for brighter satellites

Satellite Brightness Start Highest point End
(mag) Time Altitude Azimuth Time Altitude Azimuth Time Altitude Azimuth
Cosmos 1605 Rocket 4.3 19:22:15 10° SSE 19:28:09 46° E 19:34:08 10° NNE
Meteor 1-22 Rocket 4.3 19:23:37 10° S 19:29:25 78° E 19:35:26 10° NNE
Spot 2 Rocket 4.5 19:25:49 10° SE 19:30:04 27° ENE 19:34:20 10° NNE
Cosmos 1867 3.8 19:26:47 10° S 19:31:57 47° ESE 19:37:10 10° NE
Cosmos 2278 Rocket 2.3 19:26:27 10° SSW 19:32:07 86° WNW 19:37:50 10° NNE
SJ-6B 2.7 19:32:50 10° SSE 19:36:31 61° ENE 19:40:12 10° N
ATLAS 5 CENTAUR R/B 2.4 19:34:36 10° S 19:38:39 32° ESE 19:42:58 10° NE
Cosmos 2344 4.1 19:31:23 10° SW 19:39:01 67° NW 19:47:19 10° NNE
Yuri Rocket 4.2 19:35:16 10° WSW 19:39:24 32° S 19:43:08 10° SE
NOAA 12 4.4 19:37:24 10° S 19:42:42 75° WSW 19:48:01 10° NNW
Timation 1 Rocket 4.3 19:38:41 10° S 19:44:37 68° ESE 19:50:36 10° NNE
H-2A R/B 3.4 19:41:15 10° SE 19:44:48 35° ENE 19:48:24 10° N
Cosmos 2123 Rocket 4.0 19:40:13 10° N 19:46:30 67° E 19:52:42 10° SSE
CZ-3C R/B 4.0 19:41:56 10° WSW 19:46:42 13° SW 19:49:29 10° SSW
Cosmos 2297 3.8 19:43:46 10° S 19:49:19 57° ESE 19:54:56 10° NNE
Resurs 1-3 4.1 19:48:11 10° SE 19:52:13 37° ENE 19:56:16 10° N
Cosmos 1125 Rocket 3.4 19:51:52 10° S 19:57:00 70° ESE 20:02:12 10° NNE
FengYun 1-2 T 4.2 19:52:21 10° SSE 19:57:53 75° ENE 20:03:30 10° N
Delta 128 4.4 19:56:00 10° WSW 20:00:14 36° S 20:03:09 17° ESE
HJ-1C 3.3 19:57:14 10° SSE 20:00:36 88° E 20:04:02 10° N
Cosmos 1758 3.2 19:59:17 10° S 20:03:13 70° E 20:07:12 10° NNE
SeaSat 1 2.4 19:59:08 10° SSE 20:04:01 71° ENE 20:08:56 10° NNW
Geosat 4.1 20:00:01 10° NE 20:04:56 53° ESE 20:09:49 10° S
Cosmos 2082 Rocket 2.8 20:00:43 10° N 20:06:00 38° ENE 20:09:47 17° ESE
GPS 2-05 Rocket1 2.8 20:03:19 10° W 20:06:52 90° WNW 20:09:03 22° E
ALOS 2.5 20:02:54 10° S 20:07:33 72° W 20:12:13 10° NNW
Cosmos 1953 2.2 20:06:15 10° S 20:10:18 79° E 20:14:22 10° N
Cosmos 1271 Rocket 3.4 20:06:40 10° SSE 20:10:19 35° E 20:13:59 10° NNE
SL-27 R/B 4.3 20:07:57 10° NW 20:11:15 34° WSW 20:14:35 10° SSW
SAR-Lupe-4 4.1 20:15:34 28° ESE 20:16:44 37° ENE 20:20:04 10° N
Helios 1B rocket 2.6 20:12:52 10° NNE 20:16:51 46° E 20:20:48 10° S
Timation 2 Rocket 4.4 20:11:47 10° N 20:17:38 40° ENE 20:20:52 23° ESE
Abrixas 2.8 20:15:03 10° NW 20:17:46 42° NE 20:18:13 38° ENE
Tiangong 1 2.3 20:16:27 10° W 20:19:07 31° SW 20:20:18 22° S
Cosmos 1459 Rocket 4.2 20:13:47 10° SSE 20:19:43 46° E 20:25:34 10° NNE
Cosmos 1939 Rocket 4.3 20:20:09 21° ENE 20:20:09 21° ENE 20:23:04 10° NNE
Okean 3 Rocket 3.8 20:15:52 10° N 20:20:15 72° W 20:24:39 10° S
Meteor 1-29 3.4 20:19:15 10° NNE 20:22:33 39° E 20:23:14 35° SE
OAO 2 Rocket 4.1 20:17:53 10° SW 20:22:35 35° SSE 20:24:21 28° ESE
Cosmos 1076 Rocket 3.3 20:19:36 10° N 20:23:51 77° E 20:28:04 10° S
Cosmos 1447 Rocket 4.4 20:17:53 10° N 20:24:02 74° E 20:30:10 10° SSE
Spot 1 4.5 20:21:22 21° SE 20:24:14 51° ENE 20:28:57 10° N
SWAS 4.4 20:20:03 10° SSW 20:24:19 87° WNW 20:28:39 10° NNE
CZ-4B DEB 4.3 20:25:30 21° NE 20:25:30 21° NE 20:27:04 10° NNE
Cosmos 1674 2.8 20:21:39 10° N 20:25:20 48° E 20:26:29 35° SE
Cosmos 2173 Rocket 4.1 20:20:54 10° SSE 20:26:49 51° E 20:32:50 10° NNE
COSMOS 2487 2.5 20:26:46 10° N 20:30:18 58° ENE 20:30:55 49° ESE
Helios 1A 3.0 20:29:49 31° SE 20:31:34 58° ENE 20:35:41 10° N
ISS -2.7 20:29:41 10° WSW 20:32:48 44° NW 20:34:47 19° NNE
Lacrosse 5 rocket 2.8 20:31:02 10° N 20:33:58 20° NE 20:33:58 20° NE
USA 186 3.4 20:36:22 17° N 20:36:22 17° N 20:37:03 10° N
SAR-Lupe-1 4.0 20:35:10 55° E 20:35:28 57° ENE 20:39:00 10° N
Meteor 1-4 Rocket 4.5 20:38:05 10° SW 20:41:09 29° WNW 20:44:15 10° NNW
CZ-2D R/B 3.9 20:38:55 12° S 20:42:22 56° W 20:46:12 10° NNW
Cosmos 1818 3.7 20:37:13 10° NNW 20:42:39 73° WSW 20:45:51 25° SSE
GP-B 3.1 20:38:33 10° S 20:42:59 85° W 20:47:27 10° N
Cosmos 1269 Rocket 4.0 20:40:19 10° NNW 20:45:37 84° WSW 20:48:47 25° SSE
Cosmos 1766 Rocket 3.6 20:41:12 10° N 20:45:42 84° W 20:48:15 25° S
Cosmos-2242 3.1 20:43:21 10° SSW 20:47:34 71° W 20:51:49 10° N
Resurs 01 Rocket 3.2 20:46:49 10° SSW 20:50:50 35° W 20:54:54 10° NNW
Cosmos 158 Rocket 4.0 20:53:21 10° NNW 20:58:32 76° WSW 21:00:40 37° S
Cosmos 2016 Rocket 3.8 20:52:35 10° S 20:58:46 69° E 21:04:54 10° NNE
Cosmos 1470 3.9 21:00:21 10° SSW 21:04:09 43° W 21:07:57 10° N
H-2A R/B (2) 3.3 21:03:58 10° WSW 21:07:25 36° S 21:08:06 35° SSE
Cosmos 1725 Rocket 4.0 21:08:00 54° E 21:08:00 54° E 21:13:47 10° NNE
Aurora 2 Rocket 4.1 21:02:36 10° WSW 21:08:34 32° S 21:08:34 32° S
USA 215 3.2 21:02:06 10° NE 21:08:39 89° NW 21:15:11 10° SW
Cosmos 1833 Rocket 3.0 21:06:11 10° NNW 21:11:44 62° WSW 21:13:40 39° S
Cosmos 1743 Rocket 4.0 21:12:32 10° N 21:16:07 57° NNW 21:16:07 57° NNW
Cosmos 1340 Rocket 3.8 21:15:22 10° NNW 21:18:38 45° WNW 21:18:38 45° WNW
SL-08 R/B 4.4 21:18:13 40° S 21:20:43 87° E 21:27:10 10° N
ATLAS 5 CENTAUR R/B 3.9 21:19:25 10° WSW 21:23:19 25° NW 21:27:28 10° N
Envisat 3.5 21:26:08 50° SW 21:26:54 55° W 21:31:54 10° NNW
Tsikada Rocket 4.3 21:25:36 10° N 21:30:36 54° NE 21:30:36 54° NE
H-2A R/B 4.3 21:42:52 15° NNE 21:42:52 15° NNE 21:43:51 10° NNE
ERS-1 Rocket 3.9 21:43:18 44° NNW 21:43:18 44° NNW 21:46:44 10° NNW
Cosmos 2082 Rocket 4.1 21:45:19 10° NW 21:49:47 24° W 21:51:41 20° SW
